Вернуться в каталог

STARLINK-32448

АктивенСвязьVLEO
NORAD 62206·PAYLOAD·🇺🇸 United States

Запущен Dec 4, 2024 с Cape Canaveral Space Force Station

Loading…

Ближайшие Пролёты (ближайшие 24 часа)

TLE

СвежийSource: CelesTrak SupGP

Эпоха: Sep 15, 2026, 03:03 UTC

1 62206C 24229Q   26258.12756944 -.00005899  00000+0 -21364-3 0  2585
2 62206  43.0005 280.5435 0001196 266.0269 222.9282 15.27586884    17

Отслеживайте STARLINK-32448 в реальном времени с AllMySat

Download on the App Store